Location: Most
(50.5133°N, 13.6207°E)
Time: 11:22:35
(UTC+01:00)

ISS - Pass Details

Date: 23 March 2017
Orbit: 399 x 409 km, 51.6° (Epoch: 23 March)

Event Time Altitude Azimuth Distance (km) Brightness Sun altitude
Exits shadow 04:30:04 14° 189° (S) 1,230 -1.7 -15.0°
Drops below altitude 10° 04:31:01 10° 174° (S) 1,468 -1.1 -14.9°
Sets 04:33:32 0° 154° (SSE) 2,325 0.1 -14.5°
